User: anonymous   Login
Location: Dayton
(39.7590°N, 84.1920°W)
Time: 19:10:17
(UTC-04:00)
Language:

Cosmos 1939 Rocket - Orbit

View from above orbital plane
View from above orbital plane
View from above satellite
View from above satellite

Ground track
Ground track

The orbit data is extracted from the following two-line orbital elements,

1 19046U 88032B   15180.57054028  .00001150  00000-0  92989-4 0  9995
2 19046 097.6185 232.8902 0039445 258.8007 100.8782 15.01189212464784
Epoch (UTC): 29 June 2015 13:41:34
Eccentricity: 0.0039445
inclination: 97.6185°
perigee height: 536 km
apogee height: 590 km
right ascension of ascending node: 232.8902°
argument of perigee: 258.8007°
revolutions per day: 15.01189212
mean anomaly at epoch: 100.8782°
orbit number at epoch: 46478

The dashed part of the orbit path shows where the satellite is in the earth's shadow,  

DLR